Cambridge, MD

7:41 PM EST on January 18, 2018 (GMT -0500)
Cambridge-Dorchester

Weather History for KCGE - February, 2014

Change the Weather History Date:

Thursday, February 6, 2014

  Actual Average (KESN) Record (KESN)
Temperature  
Mean Temperature 32 °F -  
Max Temperature 35 °F 43 °F 60 °F (1960)
Min Temperature 30 °F 24 °F 5 °F (1966)
Degree Days  
Heating Degree Days 32    
Moisture  
Dew Point 20 °F    
Average Humidity 60    
Maximum Humidity 70    
Minimum Humidity 51    
Precipitation  
Precipitation 0.00 in - - ()
Sea Level Pressure  
Sea Level Pressure 30.26 in    
Wind  
Wind Speed 11 mph (NNW)    
Max Wind Speed 21 mph    
Max Gust Speed 26 mph    
Visibility 10 miles    
Events      
Averages and records for this station are not official NWS values.
T = Trace of Precipitation, MM = Missing Value Source: NWS Daily Summary

Daily Weather History Graph

Daily Weather History Graph

Search for Another Location

Airport or City:

Trip Planner

Search our weather history database for the weather conditions in past years. The results will help you decide how hot, cold, wet, or windy it might be!

Date:

Astronomy

Feb. 06, 2014 Rise Set
Actual Time 7:04 AM EST 5:32 PM EST
Civil Twilight 6:37 AM EST 5:59 PM EST
Nautical Twilight 6:05 AM EST 6:31 PM EST
Astronomical Twilight 5:34 AM EST 7:02 PM EST
Moon 11:02 AM EST (2/6) 12:18 AM EST (2/6)
Length of Visible Light 11h 22m
Length of Day
10h 27m
Waxing Crescent, 49% of the Moon is Illuminated
Feb 6
Waxing Crescent
Feb 6
First Quarter
Feb 14
Full
Feb 22
Last Quarter
Mar 1
New

Hourly Weather History & Observations

Time (EST) Temp. Windchill Dew Point Humidity Pressure Visibility Wind Dir Wind Speed Gust Speed Precip Events Conditions
12:00 AM 35.6 °F 26.6 °F 24.8 °F 65% 30.05 in 10.0 mi NW 13.8 mph 20.7 mph N/A   Scattered Clouds
12:20 AM 35.6 °F 25.2 °F 23.0 °F 60% 30.05 in 10.0 mi NW 18.4 mph 26.5 mph N/A   Clear
12:40 AM 35.6 °F 26.6 °F 23.0 °F 60% 30.07 in 10.0 mi NW 13.8 mph 24.2 mph N/A   Clear
1:00 AM 35.6 °F 26.2 °F 24.8 °F 65% 30.07 in 10.0 mi NW 15.0 mph 20.7 mph N/A   Clear
1:20 AM 35.6 °F 25.9 °F 24.8 °F 65% 30.08 in 10.0 mi NW 16.1 mph 25.3 mph N/A   Clear
1:40 AM 33.8 °F 24.3 °F 24.8 °F 70% 30.10 in 10.0 mi NW 13.8 mph 19.6 mph N/A   Scattered Clouds
2:00 AM 33.8 °F 24.8 °F 23.0 °F 65% 30.10 in 10.0 mi NW 12.7 mph 21.9 mph N/A   Scattered Clouds
2:20 AM 33.8 °F 25.8 °F 23.0 °F 65% 30.11 in 10.0 mi NW 10.4 mph - N/A   Mostly Cloudy
2:40 AM 33.8 °F 25.3 °F 24.8 °F 70% 30.12 in 10.0 mi NNW 11.5 mph 18.4 mph N/A   Mostly Cloudy
3:00 AM 33.8 °F 23.9 °F 23.0 °F 65% 30.14 in 10.0 mi NNW 15.0 mph 20.7 mph N/A   Overcast
3:20 AM 33.8 °F 22.8 °F 23.0 °F 65% 30.16 in 10.0 mi NNW 18.4 mph 25.3 mph N/A   Overcast
3:40 AM 33.8 °F 24.3 °F 21.2 °F 60% 30.16 in 10.0 mi NNW 13.8 mph 24.2 mph N/A   Scattered Clouds
4:00 AM 33.8 °F 22.2 °F 21.2 °F 60% 30.17 in 10.0 mi NNW 20.7 mph 26.5 mph N/A   Mostly Cloudy
4:20 AM 32.0 °F 22.5 °F 21.2 °F 64% 30.19 in 10.0 mi NNW 12.7 mph 24.2 mph N/A   Mostly Cloudy
4:40 AM 32.0 °F 20.8 °F 21.2 °F 64% 30.20 in 10.0 mi NNW 17.3 mph 24.2 mph N/A   Overcast
5:01 AM 32.0 °F 22.1 °F 19.4 °F 60% 30.21 in 10.0 mi NNW 13.8 mph 24.2 mph N/A   Overcast
5:21 AM 32.0 °F 21.6 °F 21.2 °F 64% 30.22 in 10.0 mi North 15.0 mph 21.9 mph N/A   Overcast
5:41 AM 32.0 °F 24.2 °F 19.4 °F 60% 30.23 in 10.0 mi North 9.2 mph - N/A   Scattered Clouds
6:01 AM 32.0 °F 22.5 °F 19.4 °F 60% 30.24 in 10.0 mi North 12.7 mph 21.9 mph N/A   Clear
6:21 AM 32.0 °F 21.2 °F 19.4 °F 60% 30.24 in 10.0 mi North 16.1 mph 21.9 mph N/A   Clear
6:41 AM 32.0 °F 22.1 °F 19.4 °F 60% 30.26 in 10.0 mi North 13.8 mph 20.7 mph N/A   Clear
7:01 AM 32.0 °F 22.1 °F 19.4 °F 60% 30.27 in 10.0 mi North 13.8 mph 19.6 mph N/A   Clear
7:21 AM 32.0 °F 21.6 °F 19.4 °F 60% 30.27 in 10.0 mi North 15.0 mph - N/A   Clear
7:41 AM 32.0 °F 21.6 °F 19.4 °F 60% 30.28 in 10.0 mi North 15.0 mph 20.7 mph N/A   Clear
8:01 AM 30.2 °F 21.3 °F 17.6 °F 60% 30.30 in 10.0 mi North 10.4 mph - N/A   Clear
8:21 AM 30.2 °F 22.6 °F 17.6 °F 60% 30.31 in 10.0 mi North 8.1 mph - N/A   Clear
8:41 AM 32.0 °F 22.5 °F 19.4 °F 60% 30.32 in 10.0 mi North 12.7 mph 17.3 mph N/A   Clear
9:01 AM 32.0 °F 23.6 °F 19.4 °F 60% 30.32 in 10.0 mi North 10.4 mph 16.1 mph N/A   Clear
9:21 AM 32.0 °F 22.1 °F 19.4 °F 60% 30.32 in 10.0 mi North 13.8 mph 18.4 mph N/A   Clear
9:41 AM 32.0 °F 22.1 °F 17.6 °F 55% 30.32 in 10.0 mi NNW 13.8 mph 18.4 mph N/A   Clear
10:01 AM 32.0 °F 24.2 °F 17.6 °F 55% 30.32 in 10.0 mi NNW 9.2 mph - N/A   Clear
10:21 AM 32.0 °F 23.0 °F 17.6 °F 55% 30.33 in 10.0 mi NNW 11.5 mph 17.3 mph N/A   Clear
10:41 AM 32.0 °F 22.5 °F 15.8 °F 51% 30.33 in 10.0 mi NNW 12.7 mph - N/A   Clear
11:01 AM 32.0 °F 23.0 °F 15.8 °F 51% 30.32 in 10.0 mi NNW 11.5 mph 17.3 mph N/A   Clear
11:21 AM 32.0 °F 24.2 °F 15.8 °F 51% 30.33 in 10.0 mi NNW 9.2 mph 17.3 mph N/A   Clear
11:41 AM 32.0 °F 23.6 °F 17.6 °F 55% 30.33 in 10.0 mi NNW 10.4 mph - N/A   Clear
12:01 PM 33.8 °F 27.0 °F 17.6 °F 52% 30.31 in 10.0 mi NW 8.1 mph - N/A   Clear
12:21 PM 33.8 °F 26.4 °F 17.6 °F 52% 30.31 in 10.0 mi NW 9.2 mph - N/A   Clear
12:41 PM 33.8 °F 26.4 °F 19.4 °F 56% 30.30 in 10.0 mi NW 9.2 mph - N/A   Clear
1:01 PM 33.8 °F 27.0 °F 19.4 °F 56% 30.30 in 10.0 mi NW 8.1 mph - N/A   Clear
1:21 PM 33.8 °F 25.3 °F 21.2 °F 60% 30.31 in 10.0 mi NNW 11.5 mph - N/A   Clear
1:41 PM 33.8 °F 26.4 °F 21.2 °F 60% 30.30 in 10.0 mi NW 9.2 mph - N/A   Clear
2:02 PM 32.0 °F 26.4 °F 19.4 °F 60% 30.29 in 10.0 mi NNW 5.8 mph - N/A   Clear
2:22 PM 33.8 °F 27.0 °F 19.4 °F 56% 30.29 in 10.0 mi NNW 8.1 mph - N/A   Clear
2:42 PM 33.8 °F 28.6 °F 17.6 °F 52% 30.28 in 10.0 mi NW 5.8 mph - N/A   Clear
3:02 PM 33.8 °F 27.7 °F 17.6 °F 52% 30.29 in 10.0 mi NNW 6.9 mph - N/A   Clear
3:22 PM 33.8 °F 27.7 °F 17.6 °F 52% 30.29 in 10.0 mi NNW 6.9 mph - N/A   Clear
3:42 PM 33.8 °F 29.6 °F 17.6 °F 52% 30.29 in 10.0 mi NW 4.6 mph - N/A   Clear
4:02 PM 33.8 °F 28.6 °F 17.6 °F 52% 30.29 in 10.0 mi NNW 5.8 mph - N/A   Clear
4:22 PM 33.8 °F 29.6 °F 17.6 °F 52% 30.30 in 10.0 mi NNW 4.6 mph - N/A   Clear
4:41 PM 33.8 °F 30.8 °F 17.6 °F 52% 30.31 in 10.0 mi NW 3.5 mph - N/A   Clear
5:02 PM 33.8 °F - 17.6 °F 52% 30.31 in 10.0 mi Calm Calm - N/A   Clear
5:22 PM 32.0 °F - 17.6 °F 55% 30.30 in 10.0 mi Calm Calm - N/A   Clear
5:42 PM 32.0 °F - 17.6 °F 55% 30.29 in 10.0 mi Calm Calm - N/A   Clear
6:02 PM 32.0 °F - 17.6 °F 55% 30.29 in 10.0 mi Calm Calm - N/A   Clear
6:22 PM 32.0 °F - 21.2 °F 64% 30.30 in 10.0 mi Calm Calm - N/A   Clear
6:42 PM 32.0 °F - 21.2 °F 64% 30.31 in 10.0 mi Calm Calm - N/A   Clear
7:02 PM 32.0 °F - 21.2 °F 64% 30.31 in 10.0 mi Calm Calm - N/A   Clear
7:22 PM 32.0 °F - 21.2 °F 64% 30.31 in 10.0 mi Calm Calm - N/A   Clear
7:42 PM 32.0 °F - 21.2 °F 64% 30.31 in 10.0 mi Calm Calm - N/A   Clear
8:02 PM 32.0 °F - 23.0 °F 69% 30.32 in 10.0 mi Calm Calm - N/A   Clear
8:22 PM 32.0 °F - 23.0 °F 69% 30.30 in 10.0 mi Calm Calm - N/A   Clear
8:42 PM 32.0 °F - 23.0 °F 69% 30.30 in 10.0 mi Calm Calm - N/A   Clear
9:02 PM 32.0 °F - 23.0 °F 69% 30.31 in 10.0 mi Calm Calm - N/A   Clear
9:22 PM 32.0 °F 28.7 °F 23.0 °F 69% 30.33 in 10.0 mi West 3.5 mph - N/A   Clear
9:42 PM 32.0 °F - 21.2 °F 64% 30.33 in 10.0 mi Calm Calm - N/A   Clear
10:02 PM 32.0 °F - 21.2 °F 64% 30.32 in 10.0 mi Calm Calm - N/A   Clear
10:23 PM 32.0 °F - 23.0 °F 69% 30.33 in 10.0 mi Calm Calm - N/A   Clear
10:43 PM 32.0 °F - 21.2 °F 64% 30.32 in 10.0 mi Calm Calm - N/A   Clear
11:03 PM 32.0 °F - 23.0 °F 69% 30.32 in 10.0 mi Calm Calm - N/A   Clear
11:23 PM 32.0 °F - 23.0 °F 69% 30.31 in 10.0 mi Calm Calm - N/A   Clear
11:43 PM 32.0 °F - 21.2 °F 64% 30.30 in 10.0 mi Calm Calm - N/A   Clear